sat.trackr.live / text

‹ back to catalog

STARLINK-33689

NORAD 63322 · 2025-057R

PAYLOAD ACTIVE UNKNOWN

§ Identity

Operator
Country
US
Launch date
2025-03-18
Launch site
AFETR
Launch vehicle
Mass (kg)
RCS (m²)

Purposes: comms

External: N2YO · Heavens-Above · Gunter

§ Orbital elements

Epoch: 2026-05-24T21:08:32.554176Z

Period
94.27 min
Inclination
43.0027°
Eccentricity
0.0001917
Mean motion
15.27589484 rev/d
Perigee alt
481.7 km
Apogee alt
484.3 km
Semi-major
6,861.2 km
B*
5.1346e-4
RAAN
320.2370°
Arg perigee
250.0051°
Mean anomaly
110.0595°
Rev number
6,743

§ Raw data

STARLINK-336891 63322U 25057R   26144.88093234  .00013898  00000+0  51346-3 0  99992 63322  43.0027 320.2370 0001917 250.0051 110.0595 15.27589484 67436

JSON: /api/v1/satellites/63322 · /tle

For live sub-satellite position, see the globe view (requires WebGL).

§ Visibility from observer

Set your observer location to see the next 7 days of passes ≥ 10°. The values pass through the URL so the page stays shareable.

No JS? Fill the form by hand. The geolocation button needs JavaScript.